Weather Roundup
Issued by NWS Corpus Christi, TX

Home | Current Version | Previous Version | Text Only | Print | Product List | Glossary Off
Versions: 1 2 3 4 5 6 7 8 9 10 11 12 13 14 15 16 17 18 19 20 21 22 23 24 25 26 27 28 29 30 31 32 33 34 35 36 37 38 39 40 41 42 43 44 45 46 47 48 49 50

000
ASUS44 KCRP 192310
HRRCRP

SOUTH TEXAS REGIONAL WEATHER ROUNDUP
NATIONAL WEATHER SERVICE CORPUS CHRISTI TX
500 PM CST FRI DEC 19 2014


TXZ229>244-200000-
...CORPUS CHRISTI AREA OBSERVATIONS...

CITY           SKY/WX    TMP DP  RH WIND       PRES   REMARKS
CORPUS CHRISTI CLOUDY    60  55  83 N15       30.03R
NAS CORPUS CHR CLOUDY    60  57  89 N20       30.03R
ROCKPORT       CLOUDY    60  55  83 N12       30.03R
KINGSVILLE NAS CLOUDY    62  58  86 N12       30.04R
ALICE          CLOUDY    64  56  75 MISG      30.03R
FALFURRIAS     CLOUDY    63  56  78 N6        30.03R
$$

...VICTORIA AREA OBSERVATIONS...

CITY           SKY/WX    TMP DP  RH WIND       PRES   REMARKS
VICTORIA       CLOUDY    62  56  80 N8        30.04R
BEEVILLE       CLOUDY    62  55  77 N10       30.04R
PLEASANTON     CLEAR     62  51  65 NE8       30.07R
SAN ANTONIO    PTCLDY    59  48  67 N14       30.09R
$$

...LAREDO AREA OBSERVATIONS...

CITY           SKY/WX    TMP DP  RH WIND       PRES   REMARKS
LAREDO         NOT AVBL
COTULLA        PTCLDY    67  51  56 NE7       30.06R
DEL RIO        CLEAR     70  42  36 N9        30.04S
MCALLEN        CLOUDY    62  57  83 N12       30.03R
HEBBRONVILLE   PTCLDY    63  55  74 N8        30.05R
$$

...OTHER TEXAS OBSERVATIONS...

CITY           SKY/WX    TMP DP  RH WIND       PRES   REMARKS
BROWNSVILLE    CLOUDY    62  58  86 N10       30.00R
HOUSTON        CLOUDY    54  52  93 N13       30.05R
COL. STATION   CLOUDY    54  50  86 N15       30.10R
AUSTIN         CLOUDY    54  48  80 N13       30.11R
WACO           CLOUDY    49  45  86 N15       30.16R
FORT WORTH     CLOUDY    48  44  86 N10       30.16R
WICHITA FALLS  CLOUDY    45  40  82 NE7       30.18S
LUBBOCK        MOCLDY    42  36  79 NE5       30.12S
EL PASO        MOSUNNY   54  33  45 E3        30.13F
$$

...MARINE OBSERVATIONS...

STATION/POSITION TIME  SKY/WX   TEMP    WIND        PRES    VSBY  WAVE   SWELL
                                AIR SEA DIR/SP/G                  HT/PER HT/PER
                 (UTC)          (F)     (DEG/KT/KT) (MB)    (MI)  (FT/S) (FT/S)
PORT ARANSAS     2300            59 65  350/ 17/ 20 1016.7R
BUOY 90 E PORT A 2300            65 71   10/ 17/ 21 1014.0R         4/ 6
BUOY 45 SE BAFFI 2300            63 73  350/ 19/ 21 1014.6R         5/ 5
BUOY 200 E PT IS 2300            73 73  200/ 10/ 12 1013.6R         3/ 6   3/ 6
BUOY 15 E GALVES 2300            60 65   30/ 23/ 27 1014.0S         5/ 5
$$



USA.gov is the U.S. government's official web portal to all federal, state and local government web resources and services.